Airfield :
LOGIN :

Register | Disclaimer

   EN    FR    IT 

 










Legend :    VFR   Marginal VFR   IFR   Intensive IFR   Very Intensive IFR
Visi :
Ceiling :
>= 8 km
>= 3000ft
5 to 8 km
1000 to 3000 ft
1500m to 5 km
500 to 1000 ft
800 to 1500m
200 to 500 ft
< 800m
< 200 ft
Symbols :   Thunderstorms  Fog  Heavy snow  Heavy precipitations  Wind > 20 kt
SIGMETs :     Misc.  Thunderstorms  Icing  Turbulence  Mountain Waves  Volcanic Ashes







- Airport Elevation : 915 ft
- IATA code : LUG


LSZA - Lugano

CURRENT METAR :
  • 130720Z 01003KT CAVOK M01/M05 Q1016 NOSIG

EXPIRED METARs :
  • 130650Z VRB01KT 9999 BKN090 M00/M04 Q1016 NOSIG
  • 130620Z 34002KT 9999 OVC090 M01/M04 Q1016 NOSIG
  • 130550Z 35002KT 9999 OVC090 M01/M04 Q1016 NOSIG
  • 130520Z VRB02KT 9999 FEW080 BKN090 M01/M04 Q1016 NOSIG
  • 130450Z AUTO 35003KT 9999 OVC080 M02/M04 Q1016
  • 130420Z AUTO 01001KT 9999 BKN070 OVC090 M01/M04 Q1016

TAF TAF LSZA
Valid from the 13 at 06:00 until the 13 at 15:00 UTC


130525Z 1306/1315 VRB03KT 9999 OVC080
PROB30
TEMPO 1309/1315 4500 -SN
ATIS : +41 22 417 40 88
No reported NOTAMs for that airfield.



MET'MAP, your aeronautical weather chart ! - Copyright ORBIFLY December 2007 - Disclaimer

ORBIFLY MET'MAP TEAM :

Programming & Development : Alexandra Zaïnal
Concept & Development : Baudouin d'Aumeries
Co-Development & Prog : Marc-Olivier Méhu
Technical & hardware support : Manuel Goepfert

Contact : metmap@orbifly.com




SOURCES & CREDITS :

   NOAA